sat.trackr.live / text

‹ back to catalog

GRUS-3G

NORAD 69878 · 2026-156K

PAYLOAD ACTIVE UNKNOWN

§ Identity

Operator
Country
JPN
Launch date
2026-07-07
Launch site
AFWTR
Launch vehicle
Mass (kg)
RCS (m²)

External: N2YO · Heavens-Above · Gunter

§ Orbital elements

Epoch: 2026-09-19T11:04:29.927136Z

Period
96.53 min
Inclination
97.7426°
Eccentricity
0.0005232
Mean motion
14.91810158 rev/d
Perigee alt
588.6 km
Apogee alt
595.9 km
Semi-major
6,970.4 km
B*
8.0266e-5
RAAN
161.6470°
Arg perigee
262.7243°
Mean anomaly
97.3381°
Rev number
1,105

§ Raw data

GRUS-3G1 69878U 26156K   26262.46145749  .00000754  00000+0  80266-4 0  99972 69878  97.7426 161.6470 0005232 262.7243  97.3381 14.91810158 11054

JSON: /api/v1/satellites/69878 · /tle

For live sub-satellite position, see the globe view (requires WebGL).

§ Visibility from observer

Set your observer location to see the next 7 days of passes ≥ 10°. The values pass through the URL so the page stays shareable.

No JS? Fill the form by hand. The geolocation button needs JavaScript.